Location: Ceske Budejovice
(48.9830°N, 14.4670°E)
Time: 07:44:12
(UTC+02:00)

ISS - Pass Details

Date: 10 July 2022
Orbit: 412 x 420 km, 51.6° (Epoch: 18 August)

Event Time Altitude Azimuth Distance (km) Brightness Sun altitude
Exits shadow 02:28:03 - 276° (W) 2,020 -0.4 -16.5°
Reaches altitude 10° 02:29:21 10° 280° (W) 1,496 -1.1 -16.5°
Maximum altitude 02:32:38 52° 358° (N) 530 -2.9 -16.3°
Drops below altitude 10° 02:35:56 10° 76° (ENE) 1,502 -0.5 -16.1°
Sets 02:38:05 0° 81° (E) 2,368 0.5 -15.9°
